Big Bear Station Historical Data
Daily Summary for March 5, 2017 Units:  English    Metric   Both
Next Day »
Daily Weekly Monthly Yearly Custom
  High: Low: Average:
Temperature: 35.1 °F 21.7 °F 30.6 °F
Dew Point: 30.8 °F 5.7 °F 20 °F
Humidity: 93% 31% 69%
Wind Speed: 11.9mph 0.0mph 3.7mph
Wind Gust: -999.0mph - -
Wind- - WSW
Pressure: 30.00 in 29.93 in -
Precipitation: 0.01 in    
Historical Graphs
 
 
Tabular Data for March 5, 2017
Time Temperature Dew Point Pressure Wind Wind Speed Wind Gust Humidity Rainfall Rate (Hourly)
00:07 33.4 °F 10.5 °F 30.00 in SSE 3.7 mph -999.0 mph 38% 0 in
00:24 34.3 °F 8.1 °F 29.99 in NNW 6.3 mph -999.0 mph 33% 0 in
00:39 34.3 °F 7.5 °F 29.99 in North 3.7 mph -999.0 mph 32% 0 in
00:54 34.3 °F 8.1 °F 30.00 in NW 3.2 mph -999.0 mph 33% 0 in
01:09 34.0 °F 8.5 °F 30.00 in NE 5.3 mph -999.0 mph 34% 0 in
01:24 33.8 °F 9.6 °F 29.99 in NW 4.2 mph -999.0 mph 36% 0 in
01:40 32.9 °F 11.8 °F 29.99 in NNW 2.7 mph -999.0 mph 41% 0 in
01:58 32.7 °F 9.9 °F 29.98 in North 1.7 mph -999.0 mph 38% 0 in
02:13 34.2 °F 8.1 °F 29.96 in SW 2.7 mph -999.0 mph 33% 0 in
02:31 34.3 °F 8.1 °F 29.96 in West 4.7 mph -999.0 mph 33% 0 in
02:48 34.0 °F 7.2 °F 29.96 in SW 2.7 mph -999.0 mph 32% 0 in
03:05 34.0 °F 7.2 °F 29.97 in West 4.2 mph -999.0 mph 32% 0 in
03:20 33.8 °F 7.7 °F 29.97 in WSW 3.7 mph -999.0 mph 33% 0 in
03:36 33.4 °F 8.0 °F 29.96 in SW 3.7 mph -999.0 mph 34% 0 in
03:51 33.3 °F 7.9 °F 29.96 in NNE 2.2 mph -999.0 mph 34% 0 in
04:07 32.9 °F 8.8 °F 29.96 in West 3.7 mph -999.0 mph 36% 0 in
04:22 32.4 °F 9.6 °F 29.97 in NW 3.2 mph -999.0 mph 38% 0 in
04:38 32.0 °F 9.2 °F 29.97 in NNW 1.7 mph -999.0 mph 38% 0 in
04:54 33.1 °F 5.7 °F 29.97 in WSW 2.7 mph -999.0 mph 31% 0 in
05:10 33.3 °F 5.9 °F 29.97 in South 1.7 mph -999.0 mph 31% 0 in
05:27 32.7 °F 8.7 °F 29.96 in NNW 4.7 mph -999.0 mph 36% 0 in
05:43 32.2 °F 10.6 °F 29.96 in NNW 2.7 mph -999.0 mph 40% 0 in
05:58 31.8 °F 10.8 °F 29.97 in NW 3.7 mph -999.0 mph 41% 0 in
06:15 31.3 °F 12.4 °F 29.97 in SW 1.1 mph -999.0 mph 45% 0 in
06:30 30.9 °F 11.0 °F 29.97 in SW 2.2 mph -999.0 mph 43% 0 in
06:45 31.1 °F 11.2 °F 29.97 in NW 1.7 mph -999.0 mph 43% 0 in
07:01 31.1 °F 12.7 °F 29.97 in Calm   -999.0 mph 46% 0 in
07:18 31.3 °F 14.3 °F 29.97 in WNW 2.2 mph -999.0 mph 49% 0 in
07:34 31.8 °F 12.3 °F 29.97 in West 3.2 mph -999.0 mph 44% 0 in
07:49 33.1 °F 11.4 °F 29.97 in WNW 3.7 mph -999.0 mph 40% 0 in
08:04 32.9 °F 11.2 °F 29.97 in NW 1.7 mph -999.0 mph 40% 0 in
08:20 33.3 °F 14.2 °F 29.97 in WNW 4.2 mph -999.0 mph 45% 0 in
08:35 33.4 °F 13.3 °F 29.97 in Calm   -999.0 mph 43% 0 in
08:52 33.1 °F 21.1 °F 29.97 in WNW 5.3 mph -999.0 mph 61% 0 in
09:07 32.5 °F 24.8 °F 29.96 in WNW 2.2 mph -999.0 mph 73% 0 in
09:24 31.3 °F 25.2 °F 29.97 in WNW 3.2 mph -999.0 mph 78% 0 in
09:40 32.4 °F 26.3 °F 29.97 in NW 3.7 mph -999.0 mph 78% 0 in
09:56 32.9 °F 27.7 °F 29.96 in WNW 5.3 mph -999.0 mph 81% 0 in
10:13 33.8 °F 26.4 °F 29.96 in NW 7.3 mph -999.0 mph 74% 0 in
10:29 34.2 °F 27.4 °F 29.96 in SE 11.4 mph -999.0 mph 76% 0 in
10:46 35.1 °F 28.6 °F 29.97 in SSW 4.7 mph -999.0 mph 77% 0 in
11:02 32.9 °F 26.8 °F 29.97 in NNW 2.7 mph -999.0 mph 78% 0 in
11:18 33.1 °F 27.9 °F 29.97 in SSE 8.3 mph -999.0 mph 81% 0 in
11:33 32.4 °F 27.5 °F 29.97 in South 5.3 mph -999.0 mph 82% 0 in
11:51 33.6 °F 27.8 °F 29.96 in NNW 3.2 mph -999.0 mph 79% 0 in
12:08 33.6 °F 28.4 °F 29.96 in NNW 3.2 mph -999.0 mph 81% 0 in
12:25 32.0 °F 27.7 °F 29.96 in SE 5.8 mph -999.0 mph 84% 0 in
12:42 32.9 °F 28.6 °F 29.94 in SSW 2.2 mph -999.0 mph 84% 0 in
12:57 31.6 °F 28.5 °F 29.94 in SE 2.7 mph -999.0 mph 88% 0 in
13:12 32.2 °F 29.9 °F 29.94 in West 4.2 mph -999.0 mph 91% 0 in
13:29 32.4 °F 30.1 °F 29.94 in East 3.7 mph -999.0 mph 91% 0 in
13:44 32.2 °F 29.9 °F 29.94 in NNW 3.2 mph -999.0 mph 91% 0 in
13:59 32.7 °F 30.1 °F 29.93 in South 11.9 mph -999.0 mph 90% 0 in
14:17 32.9 °F 30.6 °F 29.93 in WNW 2.2 mph -999.0 mph 91% 0 in
14:32 33.1 °F 30.8 °F 29.94 in South 2.7 mph -999.0 mph 91% 0 in
14:47 32.9 °F 30.0 °F 29.94 in WSW 3.7 mph -999.0 mph 89% 0 in
15:05 32.9 °F 30.6 °F 29.94 in NNW 1.1 mph -999.0 mph 91% 0 in
15:21 32.7 °F 30.4 °F 29.94 in SSW 1.7 mph -999.0 mph 91% 0 in
15:36 32.5 °F 30.4 °F 29.94 in SSW 7.3 mph -999.0 mph 92% 0 in
15:51 32.4 °F 30.6 °F 29.94 in South 3.7 mph -999.0 mph 93% 0 in
16:06 31.8 °F 29.7 °F 29.95 in SE 3.2 mph -999.0 mph 92% 0 in
16:22 31.8 °F 29.7 °F 29.94 in SSW 2.7 mph -999.0 mph 92% 0 in
16:37 31.5 °F 29.4 °F 29.93 in SW 6.8 mph -999.0 mph 92% 0 in
16:53 31.1 °F 28.8 °F 29.93 in ESE 5.3 mph -999.0 mph 91% 0 in
17:09 30.6 °F 28.0 °F 29.94 in WNW 5.3 mph -999.0 mph 90% 0 in
17:24 29.7 °F 27.1 °F 29.94 in ESE 2.7 mph -999.0 mph 90% 0 in
17:39 29.5 °F 27.7 °F 29.96 in South 6.3 mph -999.0 mph 93% 0 in
17:56 28.8 °F 26.8 °F 29.97 in SSE 3.7 mph -999.0 mph 92% 0 in
18:13 27.3 °F 23.7 °F 29.96 in NNW 4.7 mph -999.0 mph 86% 0 in
18:28 26.4 °F 23.1 °F 29.95 in NW 5.3 mph -999.0 mph 87% 0 in
18:44 26.4 °F 23.6 °F 29.95 in Calm   -999.0 mph 89% 0 in
18:59 26.4 °F 24.1 °F 29.98 in SW 2.7 mph -999.0 mph 91% 0 in
19:15 26.4 °F 23.3 °F 29.98 in NW 2.7 mph -999.0 mph 88% 0 in
19:30 26.2 °F 23.7 °F 29.98 in WNW 4.2 mph -999.0 mph 90% 0 in
19:45 26.1 °F 23.0 °F 29.97 in NW 4.2 mph -999.0 mph 88% 0 in
20:00 26.1 °F 23.6 °F 29.97 in ENE 5.3 mph -999.0 mph 90% 0 in
20:16 26.1 °F 24.4 °F 29.97 in NNW 7.3 mph -999.0 mph 93% 0 in
20:31 25.2 °F 21.9 °F 29.99 in SSW 6.3 mph -999.0 mph 87% 0 in
20:46 25.0 °F 22.2 °F 29.97 in WNW 8.9 mph -999.0 mph 89% 0 in
21:01 25.2 °F 22.9 °F 29.97 in NW 4.2 mph -999.0 mph 91% 0 in
21:17 25.2 °F 23.2 °F 29.98 in NNE 7.3 mph -999.0 mph 92% 0 in
21:32 24.4 °F 21.9 °F 29.98 in NNW 3.2 mph -999.0 mph 90% 0 in
21:47 23.9 °F 20.6 °F 29.98 in SW 1.7 mph -999.0 mph 87% 0 in
22:02 23.4 °F 19.8 °F 29.99 in West 3.2 mph -999.0 mph 86% 0 in
22:17 22.8 °F 19.8 °F 29.99 in NW 2.7 mph -999.0 mph 88% 0 in
22:33 22.8 °F 20.3 °F 29.99 in NW 3.2 mph -999.0 mph 90% 0 in
22:48 23.0 °F 21.0 °F 30.00 in ENE 2.2 mph -999.0 mph 92% 0 in
23:03 22.6 °F 20.6 °F 30.00 in Calm   -999.0 mph 92% 0 in
23:19 22.3 °F 20.3 °F 30.00 in Calm   -999.0 mph 92% 0 in
23:34 21.7 °F 19.7 °F 30.00 in NNW 1.7 mph -999.0 mph 92% 0 in
23:49 21.7 °F 20.0 °F 30.00 in NNW 3.2 mph -999.0 mph 93% 0 in
Big Bear CA Weather